"FRM_AIS_EDR_2275.DAT           ",2005-10-21T17:40:51.79 ,"1/0077996446.51979",    0,    0,  274896,"AIS","B1","B1","B1","B1","PISd",0,0,0,0,"B1", 0,15,   0, 0,    0,"AIS","N/A    ","OK ","OK ",    001172.732,    -075.790,    -016.970,    0001.171,    0084.502
"FRM_AIS_EDR_2275.DAT           ",2005-10-21T17:40:59.33 ,"1/0077996454.22043",    0,    1,  274896,"AIS","B1","B1","B1","B1","PISd",0,0,0,0,"B1", 0,15,   0, 0,    0,"AIS","N/A    ","OK ","OK ",    001162.364,    -076.109,    -016.672,    0001.192,    0084.178
"FRM_AIS_EDR_2275.DAT           ",2005-10-21T17:41:06.88 ,"1/0077996461.57642",    0,    2,  274896,"AIS","B1","B1","B1","B1","PISd",0,0,0,0,"B1", 0,15,   0, 0,    0,"AIS","N/A    ","OK ","OK ",    001152.028,    -076.428,    -016.358,    0001.216,    0083.851
"FRM_AIS_EDR_2275.DAT           ",2005-10-21T17:41:14.42 ,"1/0077996469.27706",    0,    3,  274896,"AIS","B1","B1","B1","B1","PISd",0,0,0,0,"B1", 0,15,   0, 0,    0,"AIS","N/A    ","OK ","OK ",    001141.724,    -076.749,    -016.026,    0001.240,    0083.524
"FRM_AIS_EDR_2275.DAT           ",2005-10-21T17:41:21.96 ,"1/0077996476.63305",    0,    4,  274896,"AIS","B1","B1","B1","B1","PISd",0,0,0,0,"B1", 0,15,   0, 0,    0,"AIS","N/A    ","OK ","OK ",    001131.452,    -077.071,    -015.674,    0001.265,    0083.195
"FRM_AIS_EDR_2275.DAT           ",2005-10-21T17:41:29.51 ,"1/0077996484.33369",    0,    5,  274896,"AIS","B1","B1","B1","B1","PISd",0,0,0,0,"B1", 0,15,   0, 0,    0,"AIS","N/A    ","OK ","OK ",    001121.212,    -077.393,    -015.301,    0001.292,    0082.864
"FRM_AIS_EDR_2275.DAT           ",2005-10-21T17:41:37.05 ,"1/0077996492.03432",    0,    6,  274896,"AIS","B1","B1","B1","B1","PISd",0,0,0,0,"B1", 0,15,   0, 0,    0,"AIS","N/A    ","OK ","OK ",    001111.005,    -077.716,    -014.905,    0001.321,    0082.532
"FRM_AIS_EDR_2275.DAT           ",2005-10-21T17:41:44.59 ,"1/0077996499.39031",    0,    7,  274896,"AIS","B1","B1","B1","B1","PISd",0,0,0,0,"B1", 0,15,   0, 0,    0,"AIS","N/A    ","OK ","OK ",    001100.832,    -078.041,    -014.485,    0001.351,    0082.198
"FRM_AIS_EDR_2275.DAT           ",2005-10-21T17:41:52.13 ,"1/0077996507.09095",    0,    8,  274896,"AIS","B1","B1","B1","B1","PISd",0,0,0,0,"B1", 0,15,   0, 0,    0,"AIS","N/A    ","OK ","OK ",    001090.693,    -078.365,    -014.037,    0001.383,    0081.863
"FRM_AIS_EDR_2275.DAT           ",2005-10-21T17:41:59.68 ,"1/0077996514.44694",    0,    9,  274896,"AIS","B1","B1","B1","B1","PISd",0,0,0,0,"B1", 0,15,   0, 0,    0,"AIS","N/A    ","OK ","OK ",    001080.588,    -078.691,    -013.560,    0001.416,    0081.526
"FRM_AIS_EDR_2275.DAT           ",2005-10-21T17:42:07.22 ,"1/0077996522.14758",    0,   10,  274896,"AIS","B1","B1","B1","B1","PISd",0,0,0,0,"B1", 0,15,   0, 0,    0,"AIS","N/A    ","OK ","OK ",    001070.518,    -079.017,    -013.051,    0001.452,    0081.188
"FRM_AIS_EDR_2275.DAT           ",2005-10-21T17:42:14.76 ,"1/0077996529.50357",    0,   11,  274896,"AIS","B1","B1","B1","B1","PISd",0,0,0,0,"B1", 0,15,   0, 0,    0,"AIS","N/A    ","OK ","OK ",    001060.484,    -079.343,    -012.507,    0001.491,    0080.849
"FRM_AIS_EDR_2275.DAT           ",2005-10-21T17:42:22.31 ,"1/0077996537.20421",    0,   12,  274896,"AIS","B1","B1","B1","B1","PISd",0,0,0,0,"B1", 0,15,   0, 0,    0,"AIS","N/A    ","OK ","OK ",    001050.486,    -079.670,    -011.924,    0001.532,    0080.507
"FRM_AIS_EDR_2275.DAT           ",2005-10-21T17:42:29.85 ,"1/0077996544.56020",    0,   13,  274896,"AIS","B1","B1","B1","B1","PISd",0,0,0,0,"B1", 0,15,   0, 0,    0,"AIS","N/A    ","OK ","OK ",    001040.524,    -079.997,    -011.298,    0001.575,    0080.165
"FRM_AIS_EDR_2275.DAT           ",2005-10-21T17:42:37.39 ,"1/0077996552.26083",    0,   14,  274896,"AIS","B1","B1","B1","B1","PISd",0,0,0,0,"B1", 0,15,   0, 0,    0,"AIS","N/A    ","OK ","OK ",    001030.600,    -080.325,    -010.626,    0001.622,    0079.820
"FRM_AIS_EDR_2275.DAT           ",2005-10-21T17:42:44.94 ,"1/0077996559.61683",    0,   15,  274896,"AIS","B1","B1","B1","B1","PISd",0,0,0,0,"B1", 0,15,   0, 0,    0,"AIS","N/A    ","OK ","OK ",    001020.713,    -080.652,    -009.901,    0001.673,    0079.475
"FRM_AIS_EDR_2275.DAT           ",2005-10-21T17:42:52.48 ,"1/0077996567.31746",    0,   16,  274896,"AIS","B1","B1","B1","B1","PISd",0,0,0,0,"B1", 0,15,   0, 0,    0,"AIS","N/A    ","OK ","OK ",    001010.864,    -080.979,    -009.118,    0001.727,    0079.127
"FRM_AIS_EDR_2275.DAT           ",2005-10-21T17:43:00.02 ,"1/0077996575.01810",    0,   17,  274896,"AIS","B1","B1","B1","B1","PISd",0,0,0,0,"B1", 0,15,   0, 0,    0,"AIS","N/A    ","OK ","OK ",    001001.054,    -081.305,    -008.271,    0001.785,    0078.778
"FRM_AIS_EDR_2275.DAT           ",2005-10-21T17:43:07.57 ,"1/0077996582.37409",    0,   18,  274896,"AIS","B1","B1","B1","B1","PISd",0,0,0,0,"B1", 0,15,   0, 0,    0,"AIS","N/A    ","OK ","OK ",    000991.283,    -081.631,    -007.352,    0001.849,    0078.428
"FRM_AIS_EDR_2275.DAT           ",2005-10-21T17:43:15.11 ,"1/0077996590.07473",    0,   19,  274896,"AIS","B1","B1","B1","B1","PISd",0,0,0,0,"B1", 0,15,   0, 0,    0,"AIS","N/A    ","OK ","OK ",    000981.552,    -081.955,    -006.351,    0001.917,    0078.076
"FRM_AIS_EDR_2275.DAT           ",2005-10-21T17:43:22.65 ,"1/0077996597.43072",    0,   20,  274896,"AIS","B1","B1","B1","B1","PISd",0,0,0,0,"B1", 0,15,   0, 0,    0,"AIS","N/A    ","OK ","OK ",    000971.861,    -082.279,    -005.260,    0001.992,    0077.722
"FRM_AIS_EDR_2275.DAT           ",2005-10-21T17:43:30.20 ,"1/0077996605.13135",    0,   21,  274896,"AIS","B1","B1","B1","B1","PISd",0,0,0,0,"B1", 0,15,   0, 0,    0,"AIS","N/A    ","OK ","OK ",    000962.211,    -082.600,    -004.066,    0002.074,    0077.367
"FRM_AIS_EDR_2275.DAT           ",2005-10-21T17:43:37.74 ,"1/0077996612.48735",    0,   22,  274896,"AIS","B1","B1","B1","B1","PISd",0,0,0,0,"B1", 0,15,   0, 0,    0,"AIS","N/A    ","OK ","OK ",    000952.602,    -082.920,    -002.756,    0002.163,    0077.010
"FRM_AIS_EDR_2275.DAT           ",2005-10-21T17:43:45.28 ,"1/0077996620.18798",    0,   23,  274896,"AIS","B1","B1","B1","B1","PISd",0,0,0,0,"B1", 0,15,   0, 0,    0,"AIS","N/A    ","OK ","OK ",    000943.035,    -083.236,    -001.314,    0002.261,    0076.652
"FRM_AIS_EDR_2275.DAT           ",2005-10-21T17:43:52.83 ,"1/0077996627.54398",    0,   24,  274896,"AIS","B1","B1","B1","B1","PISd",0,0,0,0,"B1", 0,15,   0, 0,    0,"AIS","N/A    ","OK ","OK ",    000933.510,    -083.549,    0000.278,    0002.369,    0076.292
"FRM_AIS_EDR_2275.DAT           ",2005-10-21T17:44:00.37 ,"1/0077996635.24461",    0,   25,  274896,"AIS","B1","B1","B1","B1","PISd",0,0,0,0,"B1", 0,15,   0, 0,    0,"AIS","N/A    ","OK ","OK ",    000924.029,    -083.858,    0002.042,    0002.489,    0075.931
"FRM_AIS_EDR_2275.DAT           ",2005-10-21T17:44:07.91 ,"1/0077996642.60060",    0,   26,  274896,"AIS","B1","B1","B1","B1","PISd",0,0,0,0,"B1", 0,15,   0, 0,    0,"AIS","N/A    ","OK ","OK ",    000914.591,    -084.162,    0004.002,    0002.622,    0075.568
"FRM_AIS_EDR_2275.DAT           ",2005-10-21T17:44:15.46 ,"1/0077996650.30124",    0,   27,  274896,"AIS","B1","B1","B1","B1","PISd",0,0,0,0,"B1", 0,15,   0, 0,    0,"AIS","N/A    ","OK ","OK ",    000905.197,    -084.459,    0006.187,    0002.769,    0075.203
"FRM_AIS_EDR_2275.DAT           ",2005-10-21T17:44:23.00 ,"1/0077996658.00187",    0,   28,  274896,"AIS","B1","B1","B1","B1","PISd",0,0,0,0,"B1", 0,15,   0, 0,    0,"AIS","N/A    ","OK ","OK ",    000895.848,    -084.748,    0008.629,    0002.934,    0074.837
"FRM_AIS_EDR_2275.DAT           ",2005-10-21T17:44:30.54 ,"1/0077996665.35787",    0,   29,  274896,"AIS","B1","B1","B1","B1","PISd",0,0,0,0,"B1", 0,15,   0, 0,    0,"AIS","N/A    ","OK ","OK ",    000886.544,    -085.027,    0011.366,    0003.119,    0074.469
"FRM_AIS_EDR_2275.DAT           ",2005-10-21T17:44:38.09 ,"1/0077996673.05850",    0,   30,  274896,"AIS","B1","B1","B1","B1","PISd",0,0,0,0,"B1", 0,15,   0, 0,    0,"AIS","N/A    ","OK ","OK ",    000877.286,    -085.295,    0014.437,    0003.326,    0074.100
"FRM_AIS_EDR_2275.DAT           ",2005-10-21T17:44:45.63 ,"1/0077996680.41449",    0,   31,  274896,"AIS","B1","B1","B1","B1","PISd",0,0,0,0,"B1", 0,15,   0, 0,    0,"AIS","N/A    ","OK ","OK ",    000868.075,    -085.548,    0017.886,    0003.558,    0073.729
"FRM_AIS_EDR_2275.DAT           ",2005-10-21T17:44:53.17 ,"1/0077996688.11513",    0,   32,  274896,"AIS","B1","B1","B1","B1","PISd",0,0,0,0,"B1", 0,15,   0, 0,    0,"AIS","N/A    ","OK ","OK ",    000858.911,    -085.785,    0021.756,    0003.818,    0073.356
"FRM_AIS_EDR_2275.DAT           ",2005-10-21T17:45:00.71 ,"1/0077996695.47112",    0,   33,  274896,"AIS","B1","B1","B1","B1","PISd",0,0,0,0,"B1", 0,15,   0, 0,    0,"AIS","N/A    ","OK ","OK ",    000849.794,    -086.000,    0026.084,    0004.108,    0072.982
"FRM_AIS_EDR_2275.DAT           ",2005-10-21T17:45:08.26 ,"1/0077996703.17176",    0,   34,  274896,"AIS","B1","B1","B1","B1","PISd",0,0,0,0,"B1", 0,15,   0, 0,    0,"AIS","N/A    ","OK ","OK ",    000840.725,    -086.190,    0030.899,    0004.431,    0072.606
"FRM_AIS_EDR_2275.DAT           ",2005-10-21T17:45:15.80 ,"1/0077996710.52775",    0,   35,  274896,"AIS","B1","B1","B1","B1","PISd",0,0,0,0,"B1", 0,15,   0, 0,    0,"AIS","N/A    ","OK ","OK ",    000831.705,    -086.352,    0036.203,    0004.787,    0072.229
"FRM_AIS_EDR_2275.DAT           ",2005-10-21T17:45:23.34 ,"1/0077996718.22838",    0,   36,  274896,"AIS","B1","B1","B1","B1","PISd",0,0,0,0,"B1", 0,15,   0, 0,    0,"AIS","N/A    ","OK ","OK ",    000822.735,    -086.479,    0041.970,    0005.173,    0071.850
"FRM_AIS_EDR_2275.DAT           ",2005-10-21T17:45:30.89 ,"1/0077996725.58438",    0,   37,  274896,"AIS","B1","B1","B1","B1","PISd",0,0,0,0,"B1", 0,15,   0, 0,    0,"AIS","N/A    ","OK ","OK ",    000813.815,    -086.568,    0048.131,    0005.586,    0071.469
"FRM_AIS_EDR_2275.DAT           ",2005-10-21T17:45:38.43 ,"1/0077996733.28501",    0,   38,  274896,"AIS","B1","B1","B1","B1","PISd",0,0,0,0,"B1", 0,15,   0, 0,    0,"AIS","N/A    ","OK ","OK ",    000804.945,    -086.616,    0054.571,    0006.018,    0071.087
"FRM_AIS_EDR_2275.DAT           ",2005-10-21T17:45:45.97 ,"1/0077996740.64101",    0,   39,  274896,"AIS","B1","B1","B1","B1","PISd",0,0,0,0,"B1", 0,15,   0, 0,    0,"AIS","N/A    ","OK ","OK ",    000796.126,    -086.619,    0061.136,    0006.457,    0070.703
"FRM_AIS_EDR_2275.DAT           ",2005-10-21T17:45:53.52 ,"1/0077996748.34164",    0,   40,  274896,"AIS","B1","B1","B1","B1","PISd",0,0,0,0,"B1", 0,15,   0, 0,    0,"AIS","N/A    ","OK ","OK ",    000787.360,    -086.578,    0067.656,    0006.894,    0070.317
"FRM_AIS_EDR_2275.DAT           ",2005-10-21T17:46:01.06 ,"1/0077996756.04227",    0,   41,  274896,"AIS","B1","B1","B1","B1","PISd",0,0,0,0,"B1", 0,15,   0, 0,    0,"AIS","N/A    ","OK ","OK ",    000778.645,    -086.493,    0073.967,    0007.317,    0069.930
"FRM_AIS_EDR_2275.DAT           ",2005-10-21T17:46:08.60 ,"1/0077996763.39827",    0,   42,  274896,"AIS","B1","B1","B1","B1","PISd",0,0,0,0,"B1", 0,15,   0, 0,    0,"AIS","N/A    ","OK ","OK ",    000769.984,    -086.367,    0079.934,    0007.717,    0069.541
"FRM_AIS_EDR_2275.DAT           ",2005-10-21T17:46:16.15 ,"1/0077996771.09890",    0,   43,  274896,"AIS","B1","B1","B1","B1","PISd",0,0,0,0,"B1", 0,15,   0, 0,    0,"AIS","N/A    ","OK ","OK ",    000761.377,    -086.204,    0085.466,    0008.088,    0069.151
"FRM_AIS_EDR_2275.DAT           ",2005-10-21T17:46:23.69 ,"1/0077996778.45490",    0,   44,  274896,"AIS","B1","B1","B1","B1","PISd",0,0,0,0,"B1", 0,15,   0, 0,    0,"AIS","N/A    ","OK ","OK ",    000752.823,    -086.006,    0090.515,    0008.426,    0068.759
"FRM_AIS_EDR_2275.DAT           ",2005-10-21T17:46:31.23 ,"1/0077996786.15553",    0,   45,  274896,"AIS","B1","B1","B1","B1","PISd",0,0,0,0,"B1", 0,15,   0, 0,    0,"AIS","N/A    ","OK ","OK ",    000744.325,    -085.780,    0095.074,    0008.732,    0068.365
"FRM_AIS_EDR_2275.DAT           ",2005-10-21T17:46:38.78 ,"1/0077996793.51152",    0,   46,  274896,"AIS","B1","B1","B1","B1","PISd",0,0,0,0,"B1", 0,15,   0, 0,    0,"AIS","N/A    ","OK ","OK ",    000735.882,    -085.529,    0099.159,    0009.006,    0067.970
"FRM_AIS_EDR_2275.DAT           ",2005-10-21T17:46:46.32 ,"1/0077996801.21216",    0,   47,  274896,"AIS","B1","B1","B1","B1","PISd",0,0,0,0,"B1", 0,15,   0, 0,    0,"AIS","N/A    ","OK ","OK ",    000727.496,    -085.256,    0102.804,    0009.251,    0067.573
"FRM_AIS_EDR_2275.DAT           ",2005-10-21T17:46:53.86 ,"1/0077996808.56815",    0,   48,  274896,"AIS","B1","B1","B1","B1","PISd",0,0,0,0,"B1", 0,15,   0, 0,    0,"AIS","N/A    ","OK ","OK ",    000719.166,    -084.964,    0106.050,    0009.470,    0067.174
"FRM_AIS_EDR_2275.DAT           ",2005-10-21T17:47:01.41 ,"1/0077996816.26879",    0,   49,  274896,"AIS","B1","B1","B1","B1","PISd",0,0,0,0,"B1", 0,15,   0, 0,    0,"AIS","N/A    ","OK ","OK ",    000710.894,    -084.656,    0108.942,    0009.665,    0066.774
"FRM_AIS_EDR_2275.DAT           ",2005-10-21T17:47:08.95 ,"1/0077996823.62478",    0,   50,  274896,"AIS","B1","B1","B1","B1","PISd",0,0,0,0,"B1", 0,15,   0, 0,    0,"AIS","N/A    ","OK ","OK ",    000702.679,    -084.335,    0111.520,    0009.839,    0066.373
"FRM_AIS_EDR_2275.DAT           ",2005-10-21T17:47:16.49 ,"1/0077996831.32541",    0,   51,  274896,"AIS","B1","B1","B1","B1","PISd",0,0,0,0,"B1", 0,15,   0, 0,    0,"AIS","N/A    ","OK ","OK ",    000694.524,    -084.002,    0113.824,    0009.994,    0065.969
"FRM_AIS_EDR_2275.DAT           ",2005-10-21T17:47:24.04 ,"1/0077996839.02605",    0,   52,  274896,"AIS","B1","B1","B1","B1","PISd",0,0,0,0,"B1", 0,15,   0, 0,    0,"AIS","N/A    ","OK ","OK ",    000686.428,    -083.659,    0115.888,    0010.134,    0065.564
"FRM_AIS_EDR_2275.DAT           ",2005-10-21T17:47:31.58 ,"1/0077996846.38204",    0,   53,  274896,"AIS","B1","B1","B1","B1","PISd",0,0,0,0,"B1", 0,15,   0, 0,    0,"AIS","N/A    ","OK ","OK ",    000678.392,    -083.307,    0117.743,    0010.260,    0065.158
"FRM_AIS_EDR_2275.DAT           ",2005-10-21T17:47:39.12 ,"1/0077996854.08267",    0,   54,  274896,"AIS","B1","B1","B1","B1","PISd",0,0,0,0,"B1", 0,15,   0, 0,    0,"AIS","N/A    ","OK ","OK ",    000670.416,    -082.947,    0119.415,    0010.373,    0064.749
"FRM_AIS_EDR_2275.DAT           ",2005-10-21T17:47:46.67 ,"1/0077996861.43867",    0,   55,  274896,"AIS","B1","B1","B1","B1","PISd",0,0,0,0,"B1", 0,15,   0, 0,    0,"AIS","N/A    ","OK ","OK ",    000662.502,    -082.580,    0120.926,    0010.476,    0064.340
"FRM_AIS_EDR_2275.DAT           ",2005-10-21T17:47:54.21 ,"1/0077996869.13930",    0,   56,  274896,"AIS","B1","B1","B1","B1","PISd",0,0,0,0,"B1", 0,15,   0, 0,    0,"AIS","N/A    ","OK ","OK ",    000654.650,    -082.207,    0122.298,    0010.569,    0063.928
"FRM_AIS_EDR_2275.DAT           ",2005-10-21T17:48:01.75 ,"1/0077996876.49530",    0,   57,  274896,"AIS","B1","B1","B1","B1","PISd",0,0,0,0,"B1", 0,15,   0, 0,    0,"AIS","N/A    ","OK ","OK ",    000646.860,    -081.828,    0123.546,    0010.655,    0063.515
"FRM_AIS_EDR_2275.DAT           ",2005-10-21T17:48:09.29 ,"1/0077996884.19593",    0,   58,  274896,"AIS","B1","B1","B1","B1","PISd",0,0,0,0,"B1", 0,15,   0, 0,    0,"AIS","N/A    ","OK ","OK ",    000639.134,    -081.444,    0124.685,    0010.732,    0063.101
"FRM_AIS_EDR_2275.DAT           ",2005-10-21T17:48:16.84 ,"1/0077996891.55192",    0,   59,  274896,"AIS","B1","B1","B1","B1","PISd",0,0,0,0,"B1", 0,15,   0, 0,    0,"AIS","N/A    ","OK ","OK ",    000631.471,    -081.056,    0125.728,    0010.804,    0062.684
"FRM_AIS_EDR_2275.DAT           ",2005-10-21T17:48:24.38 ,"1/0077996899.25256",    0,   60,  274896,"AIS","B1","B1","B1","B1","PISd",0,0,0,0,"B1", 0,15,   0, 0,    0,"AIS","N/A    ","OK ","OK ",    000623.873,    -080.663,    0126.686,    0010.870,    0062.266
"FRM_AIS_EDR_2275.DAT           ",2005-10-21T17:48:31.92 ,"1/0077996906.60855",    0,   61,  274896,"AIS","B1","B1","B1","B1","PISd",0,0,0,0,"B1", 0,15,   0, 0,    0,"AIS","N/A    ","OK ","OK ",    000616.340,    -080.266,    0127.567,    0010.931,    0061.847
"FRM_AIS_EDR_2275.DAT           ",2005-10-21T17:48:39.47 ,"1/0077996914.30919",    0,   62,  274896,"AIS","B1","B1","B1","B1","PISd",0,0,0,0,"B1", 0,15,   0, 0,    0,"AIS","N/A    ","OK ","OK ",    000608.874,    -079.865,    0128.381,    0010.987,    0061.426
"FRM_AIS_EDR_2275.DAT           ",2005-10-21T17:48:47.01 ,"1/0077996922.00982",    0,   63,  274896,"AIS","B1","B1","B1","B1","PISd",0,0,0,0,"B1", 0,15,   0, 0,    0,"AIS","N/A    ","OK ","OK ",    000601.473,    -079.460,    0129.133,    0011.039,    0061.003
"FRM_AIS_EDR_2275.DAT           ",2005-10-21T17:48:54.55 ,"1/0077996929.36581",    0,   64,  274896,"AIS","B1","B1","B1","B1","PISd",0,0,0,0,"B1", 0,15,   0, 0,    0,"AIS","N/A    ","OK ","OK ",    000594.140,    -079.053,    0129.831,    0011.088,    0060.579
"FRM_AIS_EDR_2275.DAT           ",2005-10-21T17:49:02.10 ,"1/0077996937.06645",    0,   65,  274896,"AIS","B1","B1","B1","B1","PISd",0,0,0,0,"B1", 0,15,   0, 0,    0,"AIS","N/A    ","OK ","OK ",    000586.874,    -078.642,    0130.480,    0011.133,    0060.153
"FRM_AIS_EDR_2275.DAT           ",2005-10-21T17:49:09.64 ,"1/0077996944.42244",    0,   66,  274896,"AIS","B1","B1","B1","B1","PISd",0,0,0,0,"B1", 0,15,   0, 0,    0,"AIS","N/A    ","OK ","OK ",    000579.677,    -078.229,    0131.083,    0011.176,    0059.726
"FRM_AIS_EDR_2275.DAT           ",2005-10-21T17:49:17.18 ,"1/0077996952.12307",    0,   67,  274896,"AIS","B1","B1","B1","B1","PISd",0,0,0,0,"B1", 0,15,   0, 0,    0,"AIS","N/A    ","OK ","OK ",    000572.550,    -077.812,    0131.646,    0011.215,    0059.297
"FRM_AIS_EDR_2275.DAT           ",2005-10-21T17:49:24.73 ,"1/0077996959.47907",    0,   68,  274896,"AIS","B1","B1","B1","B1","PISd",0,0,0,0,"B1", 0,15,   0, 0,    0,"AIS","N/A    ","OK ","OK ",    000565.492,    -077.393,    0132.173,    0011.252,    0058.867
"FRM_AIS_EDR_2275.DAT           ",2005-10-21T17:49:32.27 ,"1/0077996967.17970",    0,   69,  274896,"AIS","B1","B1","B1","B1","PISd",0,0,0,0,"B1", 0,15,   0, 0,    0,"AIS","N/A    ","OK ","OK ",    000558.504,    -076.972,    0132.666,    0011.287,    0058.435
"FRM_AIS_EDR_2275.DAT           ",2005-10-21T17:49:39.81 ,"1/0077996974.53570",    0,   70,  274896,"AIS","B1","B1","B1","B1","PISd",0,0,0,0,"B1", 0,15,   0, 0,    0,"AIS","N/A    ","OK ","OK ",    000551.587,    -076.547,    0133.128,    0011.320,    0058.001
"FRM_AIS_EDR_2275.DAT           ",2005-10-21T17:49:47.36 ,"1/0077996982.23633",    0,   71,  274896,"AIS","B1","B1","B1","B1","PISd",0,0,0,0,"B1", 0,15,   0, 0,    0,"AIS","N/A    ","OK ","OK ",    000544.743,    -076.121,    0133.562,    0011.351,    0057.566
"FRM_AIS_EDR_2275.DAT           ",2005-10-21T17:49:54.90 ,"1/0077996989.59232",    0,   72,  274896,"AIS","B1","B1","B1","B1","PISd",0,0,0,0,"B1", 0,15,   0, 0,    0,"AIS","N/A    ","OK ","OK ",    000537.970,    -075.692,    0133.971,    0011.380,    0057.130
"FRM_AIS_EDR_2275.DAT           ",2005-10-21T17:50:02.44 ,"1/0077996997.29296",    0,   73,  274896,"AIS","B1","B1","B1","B1","PISd",0,0,0,0,"B1", 0,15,   0, 0,    0,"AIS","N/A    ","OK ","OK ",    000531.271,    -075.261,    0134.355,    0011.408,    0056.691
"FRM_AIS_EDR_2275.DAT           ",2005-10-21T17:50:09.99 ,"1/0077997004.64895",    0,   74,  274896,"AIS","B1","B1","B1","B1","PISd",0,0,0,0,"B1", 0,15,   0, 0,    0,"AIS","N/A    ","OK ","OK ",    000524.645,    -074.828,    0134.718,    0011.434,    0056.252
"FRM_AIS_EDR_2275.DAT           ",2005-10-21T17:50:17.53 ,"1/0077997012.34958",    0,   75,  274896,"AIS","B1","B1","B1","B1","PISd",0,0,0,0,"B1", 0,15,   0, 0,    0,"AIS","N/A    ","OK ","OK ",    000518.094,    -074.392,    0135.061,    0011.459,    0055.811
"FRM_AIS_EDR_2275.DAT           ",2005-10-21T17:50:25.07 ,"1/0077997020.05022",    0,   76,  274896,"AIS","B1","B1","B1","B1","PISd",0,0,0,0,"B1", 0,15,   0, 0,    0,"AIS","N/A    ","OK ","OK ",    000511.618,    -073.955,    0135.385,    0011.483,    0055.368
"FRM_AIS_EDR_2275.DAT           ",2005-10-21T17:50:32.62 ,"1/0077997027.40621",    0,   77,  274896,"AIS","B1","B1","B1","B1","PISd",0,0,0,0,"B1", 0,15,   0, 0,    0,"AIS","N/A    ","OK ","OK ",    000505.217,    -073.516,    0135.692,    0011.505,    0054.924
"FRM_AIS_EDR_2275.DAT           ",2005-10-21T17:50:40.16 ,"1/0077997035.10684",    0,   78,  274896,"AIS","B1","B1","B1","B1","PISd",0,0,0,0,"B1", 0,15,   0, 0,    0,"AIS","N/A    ","OK ","OK ",    000498.893,    -073.075,    0135.983,    0011.527,    0054.478
"FRM_AIS_EDR_2275.DAT           ",2005-10-21T17:50:47.70 ,"1/0077997042.46284",    0,   79,  274896,"AIS","B1","B1","B1","B1","PISd",0,0,0,0,"B1", 0,15,   0, 0,    0,"AIS","N/A    ","OK ","OK ",    000492.646,    -072.631,    0136.259,    0011.547,    0054.031
"FRM_AIS_EDR_2275.DAT           ",2005-10-21T17:50:55.25 ,"1/0077997050.16347",    0,   80,  274896,"AIS","B1","B1","B1","B1","PISd",0,0,0,0,"B1", 0,15,   0, 0,    0,"AIS","N/A    ","OK ","OK ",    000486.476,    -072.186,    0136.521,    0011.566,    0053.583
"FRM_AIS_EDR_2275.DAT           ",2005-10-21T17:51:02.79 ,"1/0077997057.51947",    0,   81,  274896,"AIS","B1","B1","B1","B1","PISd",0,0,0,0,"B1", 0,15,   0, 0,    0,"AIS","N/A    ","OK ","OK ",    000480.384,    -071.739,    0136.770,    0011.585,    0053.133
"FRM_AIS_EDR_2275.DAT           ",2005-10-21T17:51:10.33 ,"1/0077997065.22010",    0,   82,  274896,"AIS","B1","B1","B1","B1","PISd",0,0,0,0,"B1", 0,15,   0, 0,    0,"AIS","N/A    ","OK ","OK ",    000474.372,    -071.291,    0137.006,    0011.603,    0052.681
"FRM_AIS_EDR_2275.DAT           ",2005-10-21T17:51:17.87 ,"1/0077997072.57609",    0,   83,  274896,"AIS","B1","B1","B1","B1","PISd",0,0,0,0,"B1", 0,15,   0, 0,    0,"AIS","N/A    ","OK ","OK ",    000468.439,    -070.840,    0137.232,    0011.620,    0052.228
"FRM_AIS_EDR_2275.DAT           ",2005-10-21T17:51:25.42 ,"1/0077997080.27673",    0,   84,  274896,"AIS","B1","B1","B1","B1","PISd",0,0,0,0,"B1", 0,15,   0, 0,    0,"AIS","N/A    ","OK ","OK ",    000462.585,    -070.388,    0137.447,    0011.636,    0051.774
"FRM_AIS_EDR_2275.DAT           ",2005-10-21T17:51:32.96 ,"1/0077997087.63272",    0,   85,  274896,"AIS","B1","B1","B1","B1","PISd",0,0,0,0,"B1", 0,15,   0, 0,    0,"AIS","N/A    ","OK ","OK ",    000456.813,    -069.935,    0137.652,    0011.652,    0051.319
"FRM_AIS_EDR_2275.DAT           ",2005-10-21T17:51:40.50 ,"1/0077997095.33335",    0,   86,  274896,"AIS","B1","B1","B1","B1","PISd",0,0,0,0,"B1", 0,15,   0, 0,    0,"AIS","N/A    ","OK ","OK ",    000451.122,    -069.479,    0137.848,    0011.667,    0050.862
"FRM_AIS_EDR_2275.DAT           ",2005-10-21T17:51:48.05 ,"1/0077997103.03399",    0,   87,  274896,"AIS","B1","B1","B1","B1","PISd",0,0,0,0,"B1", 0,15,   0, 0,    0,"AIS","N/A    ","OK ","OK ",    000445.513,    -069.022,    0138.034,    0011.682,    0050.403
"FRM_AIS_EDR_2275.DAT           ",2005-10-21T17:51:55.59 ,"1/0077997110.38998",    0,   88,  274896,"AIS","B1","B1","B1","B1","PISd",0,0,0,0,"B1", 0,15,   0, 0,    0,"AIS","N/A    ","OK ","OK ",    000439.987,    -068.564,    0138.213,    0011.696,    0049.943
"FRM_AIS_EDR_2275.DAT           ",2005-10-21T17:52:03.13 ,"1/0077997118.09062",    0,   89,  274896,"AIS","B1","B1","B1","B1","PISd",0,0,0,0,"B1", 0,15,   0, 0,    0,"AIS","N/A    ","OK ","OK ",    000434.544,    -068.104,    0138.384,    0011.709,    0049.482
"FRM_AIS_EDR_2275.DAT           ",2005-10-21T17:52:10.68 ,"1/0077997125.44661",    0,   90,  274896,"AIS","B1","B1","B1","B1","PISd",0,0,0,0,"B1", 0,15,   0, 0,    0,"AIS","N/A    ","OK ","OK ",    000429.185,    -067.642,    0138.547,    0011.722,    0049.020